Flag for U.S.A. Weather past 2 weeks in Bristol, Tennessee, U.S.A.

Now
74 °F

Scattered clouds.


Feels Like: 72 °F
Forecast: 68 / 84 °F
Wind: 6 mph from West

Location: Abingdon-Southwest Abingdon

Current Time: Sep 1, 2014 at 9:40:59 AM

Latest Report: Sep 1, 2014 at 9:15 AM


Visibility: 10 mi

Pressure: 30.19 "Hg

Humidity: 90%

Dew point: 71 °F

Location of BristolLocation

Historic Weather in Bristol — Graph

°F

Bristol temperature yesterday

Maximum temperature yesterday: 83 °F (at 12:55 PM)
Minimum temperature yesterday: 68 °F (at 7:55 AM)
Average temperature yesterday: 75 °F

Past Weeks' High & Low Weather Summary

 TemperatureHumidityPressure
High89 °F (Aug 30, 3:55 PM)100% (Aug 18, 7:35 AM)30.25 "Hg (Aug 18, 7:35 AM)
Low57 °F (Aug 27, 5:35 AM)35% (Aug 27, 4:35 PM)29.89 "Hg (Aug 18, 5:15 PM)
Average74 °F81%30.11 "Hg
* Reported Aug 17 8:35 AM — Sep 1 8:15 AM, Bristol, Weather by CustomWeather, © 2014

Note: Actual official high and low records may vary slightly from our data, if they occured in-between our weather recording intervals... More about our weather records

Advertising

Bristol weather history for previous 24 hours

 ConditionsComfort  
Time TempWeatherWind HumidityBarometerVisibility
8:15 AM
Sep 1
71 °FFog.No wind100%30.20 "Hg5 mi
7:55 AM70 °FFog.No wind100%30.19 "Hg4 mi
7:35 AM70 °FFog.No wind100%30.19 "Hg1 mi
7:15 AM70 °FFog.No wind100%30.19 "Hg2 mi
6:55 AM70 °FFog.No wind99%30.18 "Hg4 mi
6:15 AM70 °FFog.3 mph100%30.18 "Hg5 mi
5:55 AM71 °FLight rain. Partly cloudy.3 mph99%30.18 "Hg7 mi
5:15 AM71 °FPassing clouds.5 mph99%30.18 "Hg7 mi
4:55 AM70 °FClear.3 mph99%30.17 "Hg10 mi
4:15 AM71 °FPassing clouds.No wind100%30.17 "Hg10 mi
3:55 AM71 °FPassing clouds.No wind100%30.16 "Hg10 mi
3:15 AM70 °FFog.No wind100%30.16 "Hg4 mi
2:55 AM70 °FFog.No wind100%30.16 "Hg3 mi
2:35 AM70 °FFog.No wind100%30.16 "Hg1 mi
2:15 AM70 °FFog.No wind100%30.16 "Hg1 mi
1:55 AM71 °FFog.No wind99%30.16 "Hg5 mi
1:15 AM72 °FClear.No wind98%30.16 "Hg7 mi
12:55 AM72 °FClear.No wind99%30.16 "Hg10 mi
12:35 AM72 °FClear.No wind97%30.16 "Hg7 mi
12:15 AM73 °FClear.No wind95%30.16 "Hg10 mi
11:55 PM
Aug 31
73 °FClear.No wind95%30.17 "Hg10 mi
11:35 PM74 °FPassing clouds.No wind93%30.17 "Hg10 mi
11:15 PM73 °FPassing clouds.No wind93%30.17 "Hg10 mi
10:55 PM74 °FPassing clouds.6 mph92%30.18 "Hg10 mi
10:35 PM74 °FPassing clouds.3 mph92%30.18 "Hg10 mi
10:15 PM74 °FPassing clouds.No wind89%30.18 "Hg10 mi
9:55 PM74 °FRain. Partly cloudy.No wind89%30.18 "Hg10 mi
9:35 PM74 °FMostly cloudy.No wind89%30.18 "Hg10 mi
9:15 PM74 °FPassing clouds.No wind89%30.18 "Hg10 mi
8:55 PM76 °FPartly sunny.No wind84%30.17 "Hg10 mi
8:35 PM75 °FScattered clouds.No wind86%30.17 "Hg10 mi
8:15 PM76 °FSunny.No wind84%30.17 "Hg10 mi
7:55 PM76 °FScattered clouds.3 mph81%30.17 "Hg10 mi
7:35 PM77 °FSunny.6 mph80%30.17 "Hg10 mi
7:15 PM78 °FScattered clouds.5 mph80%30.16 "Hg10 mi
6:55 PM78 °FPartly sunny.6 mph76%30.16 "Hg10 mi
6:15 PM80 °FScattered clouds.6 mph72%30.16 "Hg10 mi
5:55 PM80 °FScattered clouds.6 mph68%30.16 "Hg10 mi
5:15 PM79 °FRain. Cloudy.8 mph74%30.16 "Hg7 mi
4:55 PM81 °FBroken clouds.8 mph66%30.16 "Hg10 mi
4:35 PM82 °FScattered clouds.8 mph65%30.16 "Hg10 mi
4:15 PM82 °FScattered clouds.7 mph63%30.16 "Hg10 mi
3:55 PM82 °FSunny.8 mph63%30.16 "Hg10 mi
3:35 PM82 °FSunny.8 mph64%30.17 "Hg10 mi
3:15 PM82 °FSunny.9 mph66%30.18 "Hg10 mi
2:55 PM81 °FScattered clouds.8 mph65%30.19 "Hg10 mi
2:35 PM81 °FBroken clouds.9 mph65%30.20 "Hg10 mi
1:55 PM82 °FScattered clouds.9 mph62%30.20 "Hg10 mi
1:35 PM82 °FScattered clouds.8 mph62%30.21 "Hg10 mi
1:15 PM82 °FBroken clouds.6 mph63%30.21 "Hg10 mi
12:55 PM83 °FScattered clouds.7 mph64%30.21 "Hg10 mi
12:35 PM80 °FScattered clouds.6 mph68%30.21 "Hg10 mi
12:15 PM80 °FSunny.5 mph69%30.21 "Hg10 mi
11:55 AM80 °FScattered clouds.6 mph66%30.22 "Hg10 mi
11:35 AM80 °FScattered clouds.6 mph70%30.22 "Hg10 mi
11:15 AM80 °FScattered clouds.6 mph74%30.22 "Hg10 mi
10:55 AM78 °FSunny.5 mph75%30.22 "Hg10 mi
10:35 AM77 °FScattered clouds.5 mph79%30.22 "Hg10 mi
10:15 AM76 °FScattered clouds.No wind79%30.22 "Hg10 mi
9:55 AM75 °FScattered clouds.No wind83%30.21 "Hg10 mi
9:35 AM74 °FScattered clouds.No wind85%30.21 "Hg10 mi
Weather by CustomWeather, © 2014

See weather overviewHow to use our weather pages